AL7LI Weather Reports


time (UTC)temp
C
wind
direction
speed
KPH
gust
KPH
rain 1hr
cm
rain 24hr
cm
rain mn
cm
humidity
%
barometer
mb
20260502163016 28 11 17.7 30.6 0.00 0.00 0.00 14 1012.0
20260502123015 17 112 0.0 4.8 0.00 0.00 0.00 30 1010.1
20260502113015 21 327 1.6 9.7 0.00 0.00 0.00 18 1009.7
20260502110035 20 316 3.2 9.7 0.00 0.00 0.00 20 1009.7
20260502103035 20 279 1.6 9.7 0.00 0.00 0.00 21 1009.7
20260502070017 23 46 0.0 6.4 0.00 0.00 0.00 20 1009.4
20260502063055 26 325 1.6 16.1 0.00 0.00 0.00 14 1009.2
20260502060016 27 14 8.0 22.5 0.00 0.00 0.00 12 1008.8
20260502053015 27 21 8.0 22.5 0.00 0.00 0.00 14 1008.6
20260502050057 27 282 1.6 11.3 0.00 0.00 0.00 15 1008.4
20260502043016 28 328 1.6 11.3 0.00 0.00 0.00 13 1008.1
20260502040016 29 52 3.2 12.9 0.00 0.00 0.00 12 1007.8
20260502033016 30 23 8.0 22.5 0.00 0.00 0.00 13 1007.4
20260502030016 30 21 11.3 27.4 0.00 0.00 0.00 12 1007.1
20260502023017 31 12 14.5 27.4 0.00 0.00 0.00 12 1006.8
20260502020017 32 1 16.1 38.6 0.00 0.00 0.00 12 1006.4
20260502013016 32 351 20.9 38.6 0.00 0.00 0.00 12 1006.2
20260502010016 32 4 17.7 33.8 0.00 0.00 0.00 12 1006.2
20260502003016 32 3 19.3 37.0 0.00 0.00 0.00 12 1006.2
20260502000016 32 9 22.5 40.2 0.00 0.00 0.00 12 1006.2
20260501233037 32 11 20.9 40.2 0.00 0.00 0.00 12 1006.3
20260501230016 32 2 19.3 40.2 0.00 0.00 0.00 12 1006.6
20260501223016 32 5 17.7 41.8 0.00 0.00 0.00 13 1007.0
20260501220037 32 11 20.9 41.8 0.00 0.00 0.00 13 1007.4
20260501213016 32 17 19.3 37.0 0.00 0.00 0.00 13 1007.9
20260501210036 32 13 16.1 32.2 0.00 0.00 0.00 14 1008.2
20260501203015 32 4 17.7 32.2 0.00 0.00 0.00 13 1008.4
20260501200036 31 356 19.3 32.2 0.00 0.00 0.00 13 1008.6
20260501193016 31 355 20.9 40.2 0.00 0.00 0.00 13 1008.9
20260501190036 30 356 20.9 40.2 0.00 0.00 0.00 14 1009.2
20260501183016 30 355 22.5 37.0 0.00 0.00 0.00 14 1009.5
20260501180016 29 8 24.1 38.6 0.00 0.00 0.00 15 1009.8
20260501173015 28 6 24.1 45.1 0.00 0.00 0.00 15 1009.9